Year,Month,Day,Hour,Minute,Value (Times are PST for temperature in C)
2015,03,08,00,00,7.30
2015,03,08,00,01,7.30
2015,03,08,00,02,7.30
2015,03,08,00,03,7.20
2015,03,08,00,04,7.20
2015,03,08,00,05,7.10
2015,03,08,00,06,7.00
2015,03,08,00,07,6.90
2015,03,08,00,08,6.80
2015,03,08,00,09,6.80
2015,03,08,00,10,6.70
2015,03,08,00,11,6.70
2015,03,08,00,12,6.70
2015,03,08,00,13,6.70
2015,03,08,00,14,6.70
2015,03,08,00,15,6.70
2015,03,08,00,16,6.70
2015,03,08,00,17,6.70
2015,03,08,00,18,6.70
2015,03,08,00,19,6.70
2015,03,08,00,20,6.70
2015,03,08,00,21,6.70
2015,03,08,00,22,6.70
2015,03,08,00,23,6.80
2015,03,08,00,24,6.80
2015,03,08,00,25,6.80
2015,03,08,00,26,6.80
2015,03,08,00,27,6.80
2015,03,08,00,28,6.80
2015,03,08,00,29,6.80
2015,03,08,00,30,6.80
2015,03,08,00,31,6.80
2015,03,08,00,32,6.80
2015,03,08,00,33,6.90
2015,03,08,00,34,6.90
2015,03,08,00,35,6.90
2015,03,08,00,36,6.90
2015,03,08,00,37,6.90
2015,03,08,00,38,6.90
2015,03,08,00,39,6.90
2015,03,08,00,40,6.90
2015,03,08,00,41,6.90
2015,03,08,00,42,6.80
2015,03,08,00,43,6.80
2015,03,08,00,44,6.80
2015,03,08,00,45,6.80
2015,03,08,00,46,6.80
2015,03,08,00,47,6.80
2015,03,08,00,48,6.70
2015,03,08,00,49,6.70
2015,03,08,00,50,6.70
2015,03,08,00,51,6.70
2015,03,08,00,52,6.70
2015,03,08,00,53,6.80
2015,03,08,00,54,6.80
2015,03,08,00,55,6.80
2015,03,08,00,56,6.90
2015,03,08,00,57,6.90
2015,03,08,00,58,6.90
2015,03,08,00,59,7.00
2015,03,08,01,00,7.00
2015,03,08,01,01,7.10
2015,03,08,01,02,7.10
2015,03,08,01,03,7.20
2015,03,08,01,04,7.20
2015,03,08,01,05,7.30
2015,03,08,01,06,7.30
2015,03,08,01,07,7.30
2015,03,08,01,08,7.30
2015,03,08,01,09,7.30
2015,03,08,01,10,7.30
2015,03,08,01,11,7.20
2015,03,08,01,12,7.20
2015,03,08,01,13,7.20
2015,03,08,01,14,7.10
2015,03,08,01,15,7.00
2015,03,08,01,16,7.00
2015,03,08,01,17,6.90
2015,03,08,01,18,6.90
2015,03,08,01,19,6.90
2015,03,08,01,20,6.90
2015,03,08,01,21,6.90
2015,03,08,01,22,6.90
2015,03,08,01,23,6.90
2015,03,08,01,24,6.90
2015,03,08,01,25,6.90
2015,03,08,01,26,6.90
2015,03,08,01,27,6.90
2015,03,08,01,28,6.90
2015,03,08,01,29,6.90
2015,03,08,01,30,6.90
2015,03,08,01,31,6.80
2015,03,08,01,32,6.80
2015,03,08,01,33,6.80
2015,03,08,01,34,6.70
2015,03,08,01,35,6.70
2015,03,08,01,36,6.60
2015,03,08,01,37,6.60
2015,03,08,01,38,6.60
2015,03,08,01,39,6.50
2015,03,08,01,40,6.50
2015,03,08,01,41,6.50
2015,03,08,01,42,6.50
2015,03,08,01,43,6.50
2015,03,08,01,44,6.50
2015,03,08,01,45,6.50
2015,03,08,01,46,6.50
2015,03,08,01,47,6.50
2015,03,08,01,48,6.50
2015,03,08,01,49,6.60
2015,03,08,01,50,6.60
2015,03,08,01,51,6.60
2015,03,08,01,52,6.60
2015,03,08,01,53,6.60
2015,03,08,01,54,6.60
2015,03,08,01,55,6.60
2015,03,08,01,56,6.60
2015,03,08,01,57,6.60
2015,03,08,01,58,6.60
2015,03,08,01,59,6.50
2015,03,08,03,00,6.50
2015,03,08,03,01,6.50
2015,03,08,03,02,6.50
2015,03,08,03,03,6.40
2015,03,08,03,04,6.40
2015,03,08,03,05,6.50
2015,03,08,03,06,6.40
2015,03,08,03,07,6.40
2015,03,08,03,08,6.30
2015,03,08,03,09,6.20
2015,03,08,03,10,6.10
2015,03,08,03,11,6.00
2015,03,08,03,12,5.90
2015,03,08,03,13,5.80
2015,03,08,03,14,5.70
2015,03,08,03,15,5.70
2015,03,08,03,16,5.60
2015,03,08,03,17,5.60
2015,03,08,03,18,5.60
2015,03,08,03,19,5.60
2015,03,08,03,20,5.60
2015,03,08,03,21,5.60
2015,03,08,03,22,5.60
2015,03,08,03,23,5.60
2015,03,08,03,24,5.60
2015,03,08,03,25,5.70
2015,03,08,03,26,5.70
2015,03,08,03,27,5.70
2015,03,08,03,28,5.80
2015,03,08,03,29,5.80
2015,03,08,03,30,5.80
2015,03,08,03,31,5.90
2015,03,08,03,32,5.90
2015,03,08,03,33,5.90
2015,03,08,03,34,5.90
2015,03,08,03,35,6.00
2015,03,08,03,36,6.00
2015,03,08,03,37,6.10
2015,03,08,03,38,6.10
2015,03,08,03,39,6.10
2015,03,08,03,40,6.10
2015,03,08,03,41,6.20
2015,03,08,03,42,6.20
2015,03,08,03,43,6.20
2015,03,08,03,44,6.20
2015,03,08,03,45,6.20
2015,03,08,03,46,6.20
2015,03,08,03,47,6.20
2015,03,08,03,48,6.30
2015,03,08,03,49,6.30
2015,03,08,03,50,6.30
2015,03,08,03,51,6.40
2015,03,08,03,52,6.40
2015,03,08,03,53,6.50
2015,03,08,03,54,6.50
2015,03,08,03,55,6.60
2015,03,08,03,56,6.60
2015,03,08,03,57,6.70
2015,03,08,03,58,6.70
2015,03,08,03,59,6.70
2015,03,08,04,00,6.70
2015,03,08,04,01,6.70
2015,03,08,04,02,6.60
2015,03,08,04,03,6.50
2015,03,08,04,04,6.40
2015,03,08,04,05,6.30
2015,03,08,04,06,6.10
2015,03,08,04,07,6.00
2015,03,08,04,08,5.90
2015,03,08,04,09,5.90
2015,03,08,04,10,5.80
2015,03,08,04,11,5.70
2015,03,08,04,12,5.70
2015,03,08,04,13,5.70
2015,03,08,04,14,5.70
2015,03,08,04,15,5.70
2015,03,08,04,16,5.60
2015,03,08,04,17,5.60
2015,03,08,04,18,5.60
2015,03,08,04,19,5.50
2015,03,08,04,20,5.50
2015,03,08,04,21,5.40
2015,03,08,04,22,5.40
2015,03,08,04,23,5.30
2015,03,08,04,24,5.30
2015,03,08,04,25,5.30
2015,03,08,04,26,5.30
2015,03,08,04,27,5.30
2015,03,08,04,28,5.30
2015,03,08,04,29,5.40
2015,03,08,04,30,5.40
2015,03,08,04,31,5.40
2015,03,08,04,32,5.50
2015,03,08,04,33,5.50
2015,03,08,04,34,5.50
2015,03,08,04,35,5.50
2015,03,08,04,36,5.50
2015,03,08,04,37,5.50
2015,03,08,04,38,5.50
2015,03,08,04,39,5.50
2015,03,08,04,40,5.50
2015,03,08,04,41,5.50
2015,03,08,04,42,5.60
2015,03,08,04,43,5.70
2015,03,08,04,44,5.80
2015,03,08,04,45,5.90
2015,03,08,04,46,6.00
2015,03,08,04,47,6.10
2015,03,08,04,48,6.20
2015,03,08,04,49,6.20
2015,03,08,04,50,6.30
2015,03,08,04,51,6.30
2015,03,08,04,52,6.40
2015,03,08,04,53,6.40
2015,03,08,04,54,6.40
2015,03,08,04,55,6.40
2015,03,08,04,56,6.30
2015,03,08,04,57,6.30
2015,03,08,04,58,6.30
2015,03,08,04,59,6.20
2015,03,08,05,00,6.10
2015,03,08,05,01,6.00
2015,03,08,05,02,6.00
2015,03,08,05,03,5.90
2015,03,08,05,04,5.90
2015,03,08,05,05,5.80
2015,03,08,05,06,5.80
2015,03,08,05,07,5.80
2015,03,08,05,08,5.80
2015,03,08,05,09,5.80
2015,03,08,05,10,5.90
2015,03,08,05,11,5.90
2015,03,08,05,12,6.00
2015,03,08,05,13,6.10
2015,03,08,05,14,6.20
2015,03,08,05,15,6.20
2015,03,08,05,16,6.30
2015,03,08,05,17,6.30
2015,03,08,05,18,6.30
2015,03,08,05,19,6.30
2015,03,08,05,20,6.20
2015,03,08,05,21,6.20
2015,03,08,05,22,6.10
2015,03,08,05,23,6.00
2015,03,08,05,24,6.00
2015,03,08,05,25,6.00
2015,03,08,05,26,5.90
2015,03,08,05,27,5.90
2015,03,08,05,28,5.80
2015,03,08,05,29,5.80
2015,03,08,05,30,5.80
2015,03,08,05,31,5.80
2015,03,08,05,32,5.70
2015,03,08,05,33,5.70
2015,03,08,05,34,5.70
2015,03,08,05,35,5.70
2015,03,08,05,36,5.70
2015,03,08,05,37,5.70
2015,03,08,05,38,5.70
2015,03,08,05,39,5.60
2015,03,08,05,40,5.60
2015,03,08,05,41,5.50
2015,03,08,05,42,5.50
2015,03,08,05,43,5.40
2015,03,08,05,44,5.30
2015,03,08,05,45,5.30
2015,03,08,05,46,5.20
2015,03,08,05,47,5.10
2015,03,08,05,48,5.10
2015,03,08,05,49,5.00
2015,03,08,05,50,4.90
2015,03,08,05,51,4.90
2015,03,08,05,52,4.90
2015,03,08,05,53,4.90
2015,03,08,05,54,4.80
2015,03,08,05,55,4.80
2015,03,08,05,56,4.80
2015,03,08,05,57,4.80
2015,03,08,05,58,4.90
2015,03,08,05,59,5.00
2015,03,08,06,00,5.10
2015,03,08,06,01,5.30
2015,03,08,06,02,5.40
2015,03,08,06,03,5.60
2015,03,08,06,04,5.70
2015,03,08,06,05,5.80
2015,03,08,06,06,5.90
2015,03,08,06,07,6.00
2015,03,08,06,08,6.00
2015,03,08,06,09,6.10
2015,03,08,06,10,6.10
2015,03,08,06,11,6.10
2015,03,08,06,12,6.20
2015,03,08,06,13,6.20
2015,03,08,06,14,6.20
2015,03,08,06,15,6.20
2015,03,08,06,16,6.20
2015,03,08,06,17,6.20
2015,03,08,06,18,6.20
2015,03,08,06,19,6.20
2015,03,08,06,20,6.20
2015,03,08,06,21,6.20
2015,03,08,06,22,6.30
2015,03,08,06,23,6.30
2015,03,08,06,24,6.30
2015,03,08,06,25,6.30
2015,03,08,06,26,6.30
2015,03,08,06,27,6.30
2015,03,08,06,28,6.20
2015,03,08,06,29,6.20
2015,03,08,06,30,6.10
2015,03,08,06,31,6.00
2015,03,08,06,32,5.90
2015,03,08,06,33,5.80
2015,03,08,06,34,5.70
2015,03,08,06,35,5.60
2015,03,08,06,36,5.50
2015,03,08,06,37,5.50
2015,03,08,06,38,5.40
2015,03,08,06,39,5.40
2015,03,08,06,40,5.30
2015,03,08,06,41,5.30
2015,03,08,06,42,5.30
2015,03,08,06,43,5.20
2015,03,08,06,44,5.20
2015,03,08,06,45,5.20
2015,03,08,06,46,5.10
2015,03,08,06,47,5.10
2015,03,08,06,48,5.10
2015,03,08,06,49,5.10
2015,03,08,06,50,5.10
2015,03,08,06,51,5.10
2015,03,08,06,52,5.10
2015,03,08,06,53,5.10
2015,03,08,06,54,5.10
2015,03,08,06,55,5.10
2015,03,08,06,56,5.10
2015,03,08,06,57,5.10
2015,03,08,06,58,5.10
2015,03,08,06,59,5.10
2015,03,08,07,00,5.10
2015,03,08,07,01,5.10
2015,03,08,07,02,5.10
2015,03,08,07,03,5.10
2015,03,08,07,04,5.10
2015,03,08,07,05,5.20
2015,03,08,07,06,5.20
2015,03,08,07,07,5.20
2015,03,08,07,08,5.20
2015,03,08,07,09,5.20
2015,03,08,07,10,5.30
2015,03,08,07,11,5.30
2015,03,08,07,12,5.40
2015,03,08,07,13,5.40
2015,03,08,07,14,5.50
2015,03,08,07,15,5.50
2015,03,08,07,16,5.60
2015,03,08,07,17,5.70
2015,03,08,07,18,5.80
2015,03,08,07,19,5.80
2015,03,08,07,20,5.90
2015,03,08,07,21,6.00
2015,03,08,07,22,6.10
2015,03,08,07,23,6.20
2015,03,08,07,24,6.30
2015,03,08,07,25,6.30
2015,03,08,07,26,6.30
2015,03,08,07,27,6.30
2015,03,08,07,28,6.30
2015,03,08,07,29,6.20
2015,03,08,07,30,6.20
2015,03,08,07,31,6.10
2015,03,08,07,32,6.10
2015,03,08,07,33,6.20
2015,03,08,07,34,6.20
2015,03,08,07,35,6.20
2015,03,08,07,36,6.30
2015,03,08,07,37,6.30
2015,03,08,07,38,6.30
2015,03,08,07,39,6.30
2015,03,08,07,40,6.20
2015,03,08,07,41,6.20
2015,03,08,07,42,6.10
2015,03,08,07,43,6.10
2015,03,08,07,44,6.00
2015,03,08,07,45,5.90
2015,03,08,07,46,5.80
2015,03,08,07,47,5.80
2015,03,08,07,48,5.70
2015,03,08,07,49,5.70
2015,03,08,07,50,5.60
2015,03,08,07,51,5.50
2015,03,08,07,52,5.50
2015,03,08,07,53,5.40
2015,03,08,07,54,5.40
2015,03,08,07,55,5.30
2015,03,08,07,56,5.30
2015,03,08,07,57,5.40
2015,03,08,07,58,5.50
2015,03,08,07,59,5.70
2015,03,08,08,00,5.80
2015,03,08,08,01,5.90
2015,03,08,08,02,6.00
2015,03,08,08,03,6.10
2015,03,08,08,04,6.20
2015,03,08,08,05,6.20
2015,03,08,08,06,6.30
2015,03,08,08,07,6.30
2015,03,08,08,08,6.40
2015,03,08,08,09,6.40
2015,03,08,08,10,6.50
2015,03,08,08,11,6.50
2015,03,08,08,12,6.50
2015,03,08,08,13,6.60
2015,03,08,08,14,6.60
2015,03,08,08,15,6.70
2015,03,08,08,16,6.70
2015,03,08,08,17,6.70
2015,03,08,08,18,6.70
2015,03,08,08,19,6.70
2015,03,08,08,20,6.70
2015,03,08,08,21,6.70
2015,03,08,08,22,6.70
2015,03,08,08,23,6.70
2015,03,08,08,24,6.60
2015,03,08,08,25,6.50
2015,03,08,08,26,6.50
2015,03,08,08,27,6.40
2015,03,08,08,28,6.40
2015,03,08,08,29,6.40
2015,03,08,08,30,6.40
2015,03,08,08,31,6.40
2015,03,08,08,32,6.30
2015,03,08,08,33,6.30
2015,03,08,08,34,6.30
2015,03,08,08,35,6.30
2015,03,08,08,36,6.30
2015,03,08,08,37,6.30
2015,03,08,08,38,6.30
2015,03,08,08,39,6.30
2015,03,08,08,40,6.20
2015,03,08,08,41,6.20
2015,03,08,08,42,6.10
2015,03,08,08,43,6.00
2015,03,08,08,44,5.90
2015,03,08,08,45,5.90
2015,03,08,08,46,6.00
2015,03,08,08,47,6.10
2015,03,08,08,48,6.10
2015,03,08,08,49,6.20
2015,03,08,08,50,6.30
2015,03,08,08,51,6.40
2015,03,08,08,52,6.50
2015,03,08,08,53,6.60
2015,03,08,08,54,6.60
2015,03,08,08,55,6.70
2015,03,08,08,56,6.80
2015,03,08,08,57,6.80
2015,03,08,08,58,6.80
2015,03,08,08,59,6.90
2015,03,08,09,00,6.90
2015,03,08,09,01,6.90
2015,03,08,09,02,7.00
2015,03,08,09,03,7.00
2015,03,08,09,04,7.10
2015,03,08,09,05,7.20
2015,03,08,09,06,7.20
2015,03,08,09,07,7.30
2015,03,08,09,08,7.30
2015,03,08,09,09,7.40
2015,03,08,09,10,7.40
2015,03,08,09,11,7.50
2015,03,08,09,12,7.60
2015,03,08,09,13,7.60
2015,03,08,09,14,7.60
2015,03,08,09,15,7.70
2015,03,08,09,16,7.70
2015,03,08,09,17,7.80
2015,03,08,09,18,7.80
2015,03,08,09,19,7.90
2015,03,08,09,20,7.90
2015,03,08,09,21,7.90
2015,03,08,09,22,8.00
2015,03,08,09,23,8.00
2015,03,08,09,24,8.10
2015,03,08,09,25,8.10
2015,03,08,09,26,8.20
2015,03,08,09,27,8.20
2015,03,08,09,28,8.20
2015,03,08,09,29,8.20
2015,03,08,09,30,8.30
2015,03,08,09,31,8.30
2015,03,08,09,32,8.30
2015,03,08,09,33,8.30
2015,03,08,09,34,8.30
2015,03,08,09,35,8.40
2015,03,08,09,36,8.40
2015,03,08,09,37,8.40
2015,03,08,09,38,8.40
2015,03,08,09,39,8.40
2015,03,08,09,40,8.50
2015,03,08,09,41,8.50
2015,03,08,09,42,8.50
2015,03,08,09,43,8.50
2015,03,08,09,44,8.50
2015,03,08,09,45,8.50
2015,03,08,09,46,8.50
2015,03,08,09,47,8.50
2015,03,08,09,48,8.50
2015,03,08,09,49,8.50
2015,03,08,09,50,8.50
2015,03,08,09,51,8.50
2015,03,08,09,52,8.50
2015,03,08,09,53,8.40
2015,03,08,09,54,8.40
2015,03,08,09,55,8.30
2015,03,08,09,56,8.30
2015,03,08,09,57,8.20
2015,03,08,09,58,8.20
2015,03,08,09,59,8.20
2015,03,08,10,00,8.20
2015,03,08,10,01,8.20
2015,03,08,10,02,8.20
2015,03,08,10,03,8.20
2015,03,08,10,04,8.30
2015,03,08,10,05,8.30
2015,03,08,10,06,8.30
2015,03,08,10,07,8.30
2015,03,08,10,08,8.20
2015,03,08,10,09,8.20
2015,03,08,10,10,8.20
2015,03,08,10,11,8.10
2015,03,08,10,12,8.10
2015,03,08,10,13,8.10
2015,03,08,10,14,8.10
2015,03,08,10,15,8.00
2015,03,08,10,16,8.10
2015,03,08,10,17,8.10
2015,03,08,10,18,8.10
2015,03,08,10,19,8.20
2015,03,08,10,20,8.20
2015,03,08,10,21,8.20
2015,03,08,10,22,8.20
2015,03,08,10,23,8.20
2015,03,08,10,24,8.20
2015,03,08,10,25,8.20
2015,03,08,10,26,8.20
2015,03,08,10,27,8.20
2015,03,08,10,28,8.20
2015,03,08,10,29,8.20
2015,03,08,10,30,8.20
2015,03,08,10,31,8.20
2015,03,08,10,32,8.30
2015,03,08,10,33,8.20
2015,03,08,10,34,8.20
2015,03,08,10,35,8.20
2015,03,08,10,36,8.20
2015,03,08,10,37,8.20
2015,03,08,10,38,8.20
2015,03,08,10,39,8.10
2015,03,08,10,40,8.10
2015,03,08,10,41,8.10
2015,03,08,10,42,8.10
2015,03,08,10,43,8.10
2015,03,08,10,44,8.10
2015,03,08,10,45,8.10
2015,03,08,10,46,8.10
2015,03,08,10,47,8.20
2015,03,08,10,48,8.20
2015,03,08,10,49,8.20
2015,03,08,10,50,8.20
2015,03,08,10,51,8.30
2015,03,08,10,52,8.30
2015,03,08,10,53,8.30
2015,03,08,10,54,8.30
2015,03,08,10,55,8.30
2015,03,08,10,56,8.30
2015,03,08,10,57,8.30
2015,03,08,10,58,8.30
2015,03,08,10,59,8.30
2015,03,08,11,00,8.30
2015,03,08,11,01,8.40
2015,03,08,11,02,8.40
2015,03,08,11,03,8.40
2015,03,08,11,04,8.50
2015,03,08,11,05,8.50
2015,03,08,11,06,8.60
2015,03,08,11,07,8.60
2015,03,08,11,08,8.70
2015,03,08,11,09,8.70
2015,03,08,11,10,8.70
2015,03,08,11,11,8.70
2015,03,08,11,12,8.80
2015,03,08,11,13,8.80
2015,03,08,11,14,8.80
2015,03,08,11,15,8.80
2015,03,08,11,16,8.90
2015,03,08,11,17,8.90
2015,03,08,11,18,8.90
2015,03,08,11,19,9.00
2015,03,08,11,20,9.00
2015,03,08,11,21,9.00
2015,03,08,11,22,9.00
2015,03,08,11,23,9.00
2015,03,08,11,24,9.00
2015,03,08,11,25,9.00
2015,03,08,11,26,9.00
2015,03,08,11,27,9.00
2015,03,08,11,28,9.00
2015,03,08,11,29,9.00
2015,03,08,11,30,9.10
2015,03,08,11,31,9.10
2015,03,08,11,32,9.10
2015,03,08,11,33,9.20
2015,03,08,11,34,9.20
2015,03,08,11,35,9.20
2015,03,08,11,36,9.20
2015,03,08,11,37,9.30
2015,03,08,11,38,9.30
2015,03,08,11,39,9.40
2015,03,08,11,40,9.40
2015,03,08,11,41,9.40
2015,03,08,11,42,9.50
2015,03,08,11,43,9.50
2015,03,08,11,44,9.60
2015,03,08,11,45,9.60
2015,03,08,11,46,9.70
2015,03,08,11,47,9.70
2015,03,08,11,48,9.80
2015,03,08,11,49,9.80
2015,03,08,11,50,9.90
2015,03,08,11,51,9.90
2015,03,08,11,52,10.00
2015,03,08,11,53,10.10
2015,03,08,11,54,10.10
2015,03,08,11,55,10.20
2015,03,08,11,56,10.20
2015,03,08,11,57,10.20
2015,03,08,11,58,10.20
2015,03,08,11,59,10.20
2015,03,08,12,00,10.10
2015,03,08,12,01,10.10
2015,03,08,12,02,10.10
2015,03,08,12,03,10.10
2015,03,08,12,04,10.10
2015,03,08,12,05,10.20
2015,03,08,12,06,10.20
2015,03,08,12,07,10.20
2015,03,08,12,08,10.20
2015,03,08,12,09,10.30
2015,03,08,12,10,10.30
2015,03,08,12,11,10.30
2015,03,08,12,12,10.30
2015,03,08,12,13,10.40
2015,03,08,12,14,10.50
2015,03,08,12,15,10.50
2015,03,08,12,16,10.60
2015,03,08,12,17,10.60
2015,03,08,12,18,10.70
2015,03,08,12,19,10.70
2015,03,08,12,20,10.70
2015,03,08,12,21,10.70
2015,03,08,12,22,10.70
2015,03,08,12,23,10.70
2015,03,08,12,24,10.70
2015,03,08,12,25,10.70
2015,03,08,12,26,10.70
2015,03,08,12,27,10.70
2015,03,08,12,28,10.70
2015,03,08,12,29,10.70
2015,03,08,12,30,10.70
2015,03,08,12,31,10.70
2015,03,08,12,32,10.70
2015,03,08,12,33,10.70
2015,03,08,12,34,10.80
2015,03,08,12,35,10.80
2015,03,08,12,36,10.90
2015,03,08,12,37,10.90
2015,03,08,12,38,10.90
2015,03,08,12,39,10.90
2015,03,08,12,40,10.90
2015,03,08,12,41,10.90
2015,03,08,12,42,10.90
2015,03,08,12,43,10.90
2015,03,08,12,44,10.90
2015,03,08,12,45,10.90
2015,03,08,12,46,10.90
2015,03,08,12,47,10.80
2015,03,08,12,48,10.80
2015,03,08,12,49,10.80
2015,03,08,12,50,10.80
2015,03,08,12,51,10.80
2015,03,08,12,52,10.80
2015,03,08,12,53,10.80
2015,03,08,12,54,10.80
2015,03,08,12,55,10.90
2015,03,08,12,56,10.80
2015,03,08,12,57,10.80
2015,03,08,12,58,10.80
2015,03,08,12,59,10.90
2015,03,08,13,00,11.00
2015,03,08,13,01,11.00
2015,03,08,13,02,11.00
2015,03,08,13,03,11.10
2015,03,08,13,04,11.10
2015,03,08,13,05,11.10
2015,03,08,13,06,11.10
2015,03,08,13,07,11.20
2015,03,08,13,08,11.30
2015,03,08,13,09,11.30
2015,03,08,13,10,11.30
2015,03,08,13,11,11.40
2015,03,08,13,12,11.50
2015,03,08,13,13,11.50
2015,03,08,13,14,11.50
2015,03,08,13,15,11.60
2015,03,08,13,16,11.60
2015,03,08,13,17,11.60
2015,03,08,13,18,11.70
2015,03,08,13,19,11.70
2015,03,08,13,20,11.80
2015,03,08,13,21,11.90
2015,03,08,13,22,12.00
2015,03,08,13,23,12.10
2015,03,08,13,24,12.10
2015,03,08,13,25,12.20
2015,03,08,13,26,12.20
2015,03,08,13,27,12.20
2015,03,08,13,28,12.20
2015,03,08,13,29,12.20
2015,03,08,13,30,12.20
2015,03,08,13,31,12.20
2015,03,08,13,32,12.20
2015,03,08,13,33,12.30
2015,03,08,13,34,12.30
2015,03,08,13,35,12.30
2015,03,08,13,36,12.30
2015,03,08,13,37,12.30
2015,03,08,13,38,12.30
2015,03,08,13,39,12.30
2015,03,08,13,40,12.30
2015,03,08,13,41,12.30
2015,03,08,13,42,12.30
2015,03,08,13,43,12.30
2015,03,08,13,44,12.30
2015,03,08,13,45,12.30
2015,03,08,13,46,12.30
2015,03,08,13,47,12.30
2015,03,08,13,48,12.30
2015,03,08,13,49,12.30
2015,03,08,13,50,12.30
2015,03,08,13,51,12.30
2015,03,08,13,52,12.30
2015,03,08,13,53,12.30
2015,03,08,13,54,12.30
2015,03,08,13,55,12.30
2015,03,08,13,56,12.30
2015,03,08,13,57,12.30
2015,03,08,13,58,12.40
2015,03,08,13,59,12.40
2015,03,08,14,00,12.50
2015,03,08,14,01,12.60
2015,03,08,14,02,12.60
2015,03,08,14,03,12.70
2015,03,08,14,04,12.70
2015,03,08,14,05,12.70
2015,03,08,14,06,12.70
2015,03,08,14,07,12.70
2015,03,08,14,08,12.60
2015,03,08,14,09,12.60
2015,03,08,14,10,12.60
2015,03,08,14,11,12.60
2015,03,08,14,12,12.60
2015,03,08,14,13,12.60
2015,03,08,14,14,12.60
2015,03,08,14,15,12.60
2015,03,08,14,16,12.60
2015,03,08,14,17,12.60
2015,03,08,14,18,12.60
2015,03,08,14,19,12.60
2015,03,08,14,20,12.60
2015,03,08,14,21,12.60
2015,03,08,14,22,12.70
2015,03,08,14,23,12.70
2015,03,08,14,24,12.70
2015,03,08,14,25,12.70
2015,03,08,14,26,12.80
2015,03,08,14,27,12.80
2015,03,08,14,28,12.80
2015,03,08,14,29,12.90
2015,03,08,14,30,12.90
2015,03,08,14,31,12.90
2015,03,08,14,32,13.00
2015,03,08,14,33,13.00
2015,03,08,14,34,13.00
2015,03,08,14,35,13.00
2015,03,08,14,36,13.00
2015,03,08,14,37,13.00
2015,03,08,14,38,12.90
2015,03,08,14,39,12.90
2015,03,08,14,40,12.90
2015,03,08,14,41,13.00
2015,03,08,14,42,13.00
2015,03,08,14,43,13.10
2015,03,08,14,44,13.00
2015,03,08,14,45,13.00
2015,03,08,14,46,12.90
2015,03,08,14,47,13.00
2015,03,08,14,48,12.90
2015,03,08,14,49,12.90
2015,03,08,14,50,12.90
2015,03,08,14,51,12.90
2015,03,08,14,52,12.80
2015,03,08,14,53,12.80
2015,03,08,14,54,12.80
2015,03,08,14,55,12.80
2015,03,08,14,56,12.80
2015,03,08,14,57,12.80
2015,03,08,14,58,12.80
2015,03,08,14,59,12.90
2015,03,08,15,00,13.00
2015,03,08,15,01,13.00
2015,03,08,15,02,13.10
2015,03,08,15,03,13.10
2015,03,08,15,04,13.20
2015,03,08,15,05,13.20
2015,03,08,15,06,13.30
2015,03,08,15,07,13.30
2015,03,08,15,08,13.30
2015,03,08,15,09,13.30
2015,03,08,15,10,13.20
2015,03,08,15,11,13.20
2015,03,08,15,12,13.20
2015,03,08,15,13,13.20
2015,03,08,15,14,13.30
2015,03,08,15,15,13.40
2015,03,08,15,16,13.40
2015,03,08,15,17,13.50
2015,03,08,15,18,13.60
2015,03,08,15,19,13.70
2015,03,08,15,20,13.70
2015,03,08,15,21,13.70
2015,03,08,15,22,13.70
2015,03,08,15,23,13.70
2015,03,08,15,24,13.60
2015,03,08,15,25,13.60
2015,03,08,15,26,13.50
2015,03,08,15,27,13.50
2015,03,08,15,28,13.50
2015,03,08,15,29,13.50
2015,03,08,15,30,13.50
2015,03,08,15,31,13.50
2015,03,08,15,32,13.50
2015,03,08,15,33,13.60
2015,03,08,15,34,13.60
2015,03,08,15,35,13.50
2015,03,08,15,36,13.60
2015,03,08,15,37,13.60
2015,03,08,15,38,13.60
2015,03,08,15,39,13.60
2015,03,08,15,40,13.60
2015,03,08,15,41,13.60
2015,03,08,15,42,13.60
2015,03,08,15,43,13.60
2015,03,08,15,44,13.70
2015,03,08,15,45,13.90
2015,03,08,15,46,14.00
2015,03,08,15,47,14.10
2015,03,08,15,48,14.10
2015,03,08,15,49,14.20
2015,03,08,15,50,14.20
2015,03,08,15,51,14.30
2015,03,08,15,52,14.30
2015,03,08,15,53,14.30
2015,03,08,15,54,14.30
2015,03,08,15,55,14.30
2015,03,08,15,56,14.30
2015,03,08,15,57,14.30
2015,03,08,15,58,14.30
2015,03,08,15,59,14.20
2015,03,08,16,00,14.10
2015,03,08,16,01,14.10
2015,03,08,16,02,14.10
2015,03,08,16,03,14.10
2015,03,08,16,04,14.10
2015,03,08,16,05,14.10
2015,03,08,16,06,14.10
2015,03,08,16,07,14.20
2015,03,08,16,08,14.30
2015,03,08,16,09,14.30
2015,03,08,16,10,14.30
2015,03,08,16,11,14.30
2015,03,08,16,12,14.20
2015,03,08,16,13,14.20
2015,03,08,16,14,14.10
2015,03,08,16,15,14.00
2015,03,08,16,16,14.00
2015,03,08,16,17,14.00
2015,03,08,16,18,13.90
2015,03,08,16,19,13.90
2015,03,08,16,20,13.90
2015,03,08,16,21,14.00
2015,03,08,16,22,14.10
2015,03,08,16,23,14.10
2015,03,08,16,24,14.20
2015,03,08,16,25,14.30
2015,03,08,16,26,14.40
2015,03,08,16,27,14.50
2015,03,08,16,28,14.60
2015,03,08,16,29,14.70
2015,03,08,16,30,14.80
2015,03,08,16,31,14.90
2015,03,08,16,32,15.00
2015,03,08,16,33,15.10
2015,03,08,16,34,15.20
2015,03,08,16,35,15.20
2015,03,08,16,36,15.20
2015,03,08,16,37,15.20
2015,03,08,16,38,15.30
2015,03,08,16,39,15.30
2015,03,08,16,40,15.30
2015,03,08,16,41,15.30
2015,03,08,16,42,15.30
2015,03,08,16,43,15.30
2015,03,08,16,44,15.30
2015,03,08,16,45,15.40
2015,03,08,16,46,15.40
2015,03,08,16,47,15.30
2015,03,08,16,48,15.30
2015,03,08,16,49,15.30
2015,03,08,16,50,15.20
2015,03,08,16,51,15.20
2015,03,08,16,52,15.20
2015,03,08,16,53,15.20
2015,03,08,16,54,15.20
2015,03,08,16,55,15.20
2015,03,08,16,56,15.20
2015,03,08,16,57,15.20
2015,03,08,16,58,15.20
2015,03,08,16,59,15.20
2015,03,08,17,00,15.20
2015,03,08,17,01,15.20
2015,03,08,17,02,15.20
2015,03,08,17,03,15.20
2015,03,08,17,04,15.20
2015,03,08,17,05,15.20
2015,03,08,17,06,15.10
2015,03,08,17,07,15.10
2015,03,08,17,08,15.10
2015,03,08,17,09,15.10
2015,03,08,17,10,15.10
2015,03,08,17,11,15.10
2015,03,08,17,12,15.00
2015,03,08,17,13,15.00
2015,03,08,17,14,14.90
2015,03,08,17,15,14.90
2015,03,08,17,16,14.90
2015,03,08,17,17,14.80
2015,03,08,17,18,14.80
2015,03,08,17,19,14.80
2015,03,08,17,20,14.80
2015,03,08,17,21,14.90
2015,03,08,17,22,14.90
2015,03,08,17,23,15.00
2015,03,08,17,24,15.00
2015,03,08,17,25,15.10
2015,03,08,17,26,15.10
2015,03,08,17,27,15.20
2015,03,08,17,28,15.20
2015,03,08,17,29,15.30
2015,03,08,17,30,15.30
2015,03,08,17,31,15.20
2015,03,08,17,32,15.10
2015,03,08,17,33,15.00
2015,03,08,17,34,14.90
2015,03,08,17,35,14.80
2015,03,08,17,36,14.70
2015,03,08,17,37,14.50
2015,03,08,17,38,14.40
2015,03,08,17,39,14.30
2015,03,08,17,40,14.30
2015,03,08,17,41,14.20
2015,03,08,17,42,14.20
2015,03,08,17,43,14.20
2015,03,08,17,44,14.20
2015,03,08,17,45,14.10
2015,03,08,17,46,14.10
2015,03,08,17,47,14.10
2015,03,08,17,48,14.00
2015,03,08,17,49,14.00
2015,03,08,17,50,14.00
2015,03,08,17,51,13.90
2015,03,08,17,52,13.90
2015,03,08,17,53,13.90
2015,03,08,17,54,13.90
2015,03,08,17,55,13.90
2015,03,08,17,56,13.80
2015,03,08,17,57,13.80
2015,03,08,17,58,13.80
2015,03,08,17,59,13.80
2015,03,08,18,00,13.80
2015,03,08,18,01,13.80
2015,03,08,18,02,13.80
2015,03,08,18,03,13.80
2015,03,08,18,04,13.80
2015,03,08,18,05,13.80
2015,03,08,18,06,13.80
2015,03,08,18,07,13.80
2015,03,08,18,08,13.80
2015,03,08,18,09,13.90
2015,03,08,18,10,13.90
2015,03,08,18,11,13.90
2015,03,08,18,12,13.90
2015,03,08,18,13,13.90
2015,03,08,18,14,13.90
2015,03,08,18,15,13.80
2015,03,08,18,16,13.80
2015,03,08,18,17,13.70
2015,03,08,18,18,13.70
2015,03,08,18,19,13.70
2015,03,08,18,20,13.60
2015,03,08,18,21,13.60
2015,03,08,18,22,13.50
2015,03,08,18,23,13.50
2015,03,08,18,24,13.40
2015,03,08,18,25,13.40
2015,03,08,18,26,13.40
2015,03,08,18,27,13.30
2015,03,08,18,28,13.30
2015,03,08,18,29,13.30
2015,03,08,18,30,13.30
2015,03,08,18,31,13.30
2015,03,08,18,32,13.20
2015,03,08,18,33,13.20
2015,03,08,18,34,13.20
2015,03,08,18,35,13.10
2015,03,08,18,36,13.10
2015,03,08,18,37,13.00
2015,03,08,18,38,13.00
2015,03,08,18,39,12.90
2015,03,08,18,40,12.90
2015,03,08,18,41,12.90
2015,03,08,18,42,12.80
2015,03,08,18,43,12.80
2015,03,08,18,44,12.80
2015,03,08,18,45,12.70
2015,03,08,18,46,12.70
2015,03,08,18,47,12.60